Location: Unspecified
(0.0000°N, 0.0000°E)
Time: 23:53:49
(UTC+00:00)

A-11 Canister half - Pass Details

Date: 16 February 2023
Orbit: 1526 x 1682 km, 47.3° (Epoch: 29 March)

Event Time Altitude Azimuth Distance (km) Brightness Sun altitude
Rises 21:27:53 0° 200° (SSW) 4,892 12.0 -47.0°
Reaches altitude 10° 21:31:38 10° 189° (S) 3,883 11.3 -47.9°
Enters shadow 21:33:59 17° 179° (S) 3,328 10.8 -48.5°
Maximum altitude 21:39:57 30° 132° (SE) 2,577 - -49.9°
Drops below altitude 10° 21:47:58 10° 74° (ENE) 3,771 - -51.8°
Sets 21:51:31 0° 64° (ENE) 4,732 - -52.6°
